Regional Weather Roundup
Issued by NWS Kansas City/Pleasant Hill, MO

Home | Current Version | Previous Version | Graphics & Text | Print | Product List | Glossary Off
Versions: 1 2 3 4 5 6 7 8 9 10 11 12 13 14 15 16 17 18 19 20 21 22 23 24 25 26 27 28 29 30 31 32 33 34 35 36 37 38 39 40 41 42 43 44 45 46 47 48 49 50

000
ASUS43 KEAX 302210
RWREAX

WEATHER ROUNDUP FOR EASTERN KANSAS AND NORTHWEST MISSOURI
NATIONAL WEATHER SERVICE KANSAS CITY/PLEASANT HILL MO
500 PM CDT THU OCT 30 2014

KSZ040-057-103>105-MOZ028-029-037-043-302300-
...KANSAS CITY METROPOLITAN AREA...

CITY           SKY/WX    TMP DP  RH WIND       PRES   REMARKS
K.C. INTL      MOSUNNY   64  42  44 NW15G23   30.04R
K.C. DOWNTOWN  SUNNY     67  39  35 NW17G25   30.02R
LEES SUMMIT    SUNNY     65  39  38 NW21G28   30.03R
OLATHE - IXD   SUNNY     64  39  39 NW18      30.06R
OLATHE - OJC   SUNNY     66  38  35 NW17G30   30.04R
LAWRENCE       SUNNY     65  39  38 NW24G30   30.06R

$$

MOZ001>008-011>017-020>025-030>033-038>040-044>046-053-054-302300-
...NORTHERN AND CENTRAL MISSOURI...

CITY           SKY/WX    TMP DP  RH WIND       PRES   REMARKS
ST. JOSEPH     MOSUNNY   65  41  41 NW21      30.06R
MOSBY          CLEAR     64  39  39 NW16G24   30.02R
WHITEMAN AFB   SUNNY     66  40  38 NW17      29.99R
CLINTON        SUNNY     66  41  39 NW13      30.01R
SEDALIA        SUNNY     66  42  41 NW10      30.00R
WARSAW         NOT AVBL
MARSHALL       SUNNY     66  45  45 NW13G20   30.00R
CHILLICOTHE      N/A     65  41  41 VRB6      30.02R
MOBERLY        SUNNY     63  41  45 W8        30.00R
KIRKSVILLE     SUNNY     62  45  53 N3        30.01R

$$

MOZ041-047>049-056>058-063>065-088>090-097-302300-
...EASTERN AND SOUTHERN MISSOURI...

CITY           SKY/WX    TMP DP  RH WIND       PRES   REMARKS
ST. LOUIS INTL CLOUDY    59  42  53 SW6       30.02R
SPIRIT OF STL  CLOUDY    54  47  77 CALM      30.01R
COLUMBIA       SUNNY     59  48  67 SW7       30.00R
JEFFERSON CITY MOSUNNY   59  48  67 S7        30.00R
MEXICO         MOSUNNY   61  50  67 SW9       29.99R
HANNIBAL       SUNNY     61  39  44 CALM      30.01R
ROLLA          PTSUNNY   53  48  83 S9        29.99R
LEBANON        MOSUNNY   63  43  48 W8        30.00S
OSAGE BEACH    SUNNY     63  46  55 SE3       29.99S
SPRINGFIELD    SUNNY     66  41  40 NW12      30.01R
BRANSON        MOSUNNY   68  45  42 W9G17     30.02R
JOPLIN         SUNNY     68  39  34 N15G25    30.04R
WEST PLAINS    CLOUDY    60  41  49 S5        30.01F

$$

IAZ060-094-KSZ022-034>040-054-083-096-NEZ052-066-093-302300-
...KANSAS...SOUTHEAST NEBRASKA AND IOWA...

CITY           SKY/WX    TMP DP  RH WIND       PRES   REMARKS
TOPEKA         SUNNY     68  39  34 NW16      30.08R
MANHATTAN      SUNNY     69  37  30 N12G22    30.11R
EMPORIA        SUNNY     68  35  29 NW21G29   30.08R
CHANUTE        SUNNY     70  36  28 N15G30    30.06R
WICHITA        MOSUNNY   72  34  24 N23G32    30.12R
OMAHA          MOSUNNY   59  39  47 NW26G32   30.12R
LINCOLN        SUNNY     61  39  44 NW20G26   30.16R
FALLS CITY     SUNNY     64  40  41 NW17G30   30.08R
LAMONI         SUNNY     61  41  47 NW13      30.03R
DES MOINES     MOSUNNY   62  38  40 N9        30.04R

$$




USA.gov is the U.S. government's official web portal to all federal, state and local government web resources and services.